This demonstration page uses our WeatherBlox Daily Observations layout. Learn more.

Left ArrowRight Arrow

39.08367, -84.50855

Hourly Observations for April 6, 2022

Temp ( °F °C ) Dew Point ( °F °C ) Humidity (%) Winds ( mph kmh ) Pressure ( in mb ) Visibility ( mi km ) Precip ( " mm )
12:03 am 00:03 Mostly Cloudy with Fog 44 6.7 44 6.7 100 100 Calm 29.69 1006 N/A 0.00 0.00
12:53 am 00:53 Mostly Cloudy with Fog 43 6.1 43 6.1 100 100 Calm 29.67 1005 N/A 0.00 0.00
1:01 am 01:01 Mostly Cloudy with Fog 44 6.7 44 6.7 100 100 Calm 29.69 1006 0 0 0.00 0.00
1:49 am 01:49 Mostly Cloudy with Fog 45 7 45 7 100 100 Calm 29.70 1006 N/A 0.00 0.00
1:53 am 01:53 Mostly Cloudy with Fog 45 7.2 45 7.2 100 100 Calm 29.68 1005 N/A 0.00 0.00
2:53 am 02:53 Mostly Cloudy with Fog 45 7.2 45 7.2 100 100 Calm 29.70 1006 0 0 0.00 0.00
3:18 am 03:18 Mostly Cloudy with Fog 45 7.2 45 7.2 100 100 WSW 3 6 29.70 1006 N/A 0.00 0.00
3:28 am 03:28 Mostly Cloudy with Fog 46 7.8 46 7.8 100 100 Calm 29.69 1005 0 0 0.00 0.00
3:46 am 03:46 Mostly Cloudy with Fog 45 7.2 45 7.2 100 100 Calm 29.69 1006 N/A 0.00 0.00
3:53 am 03:53 Mostly Cloudy with Fog 45 7.2 45 7.2 100 100 Calm 29.67 1005 0 0 0.00 0.00
4:53 am 04:53 Mostly Cloudy with Fog 46 7.8 46 7.8 100 100 WSW 3 6 29.68 1005 0 0 0.00 0.00
5:53 am 05:53 Mostly Cloudy with Fog 46 7.8 46 7.8 100 100 Calm 29.68 1005 0 0 0.00 0.00
6:28 am 06:28 Mostly Cloudy with Fog 45 7.2 45 7.2 100 100 Calm 29.70 1006 1 1 0.00 0.00
6:53 am 06:53 Cloudy with Mist and Fog 46 7.8 46 7.8 100 100 Calm 29.68 1005 2 3 0.00 0.00
7:21 am 07:21 Cloudy with Fog 46 7.8 46 7.8 100 100 Calm 29.69 1005 1 1 0.00 0.00
7:53 am 07:53 Cloudy with Mist and Fog 46 7.8 46 7.8 100 100 SW 3 6 29.70 1006 2 3 0.00 0.00
8:31 am 08:31 Mostly Cloudy with Mist and Fog 48 8.9 48 8.9 100 100 VRB 3 6 29.69 1005 4 6 0.00 0.00
8:53 am 08:53 Partly Cloudy with Mist and Fog 49 9.4 49 9.4 100 100 SW 3 6 29.68 1005 4 6 0.00 0.00
9:02 am 09:02 Mostly Cloudy with Mist and Fog 49 9.4 49 9.4 100 100 Calm 29.69 1005 6 10 0.00 0.00
9:53 am 09:53 Cloudy with Mist and Fog 51 10.6 50 10 96 96 S 6 9 29.66 1005 6 10 0.00 0.00
10:39 am 10:39 Cloudy with Light Rain 52 11.1 51 10.6 97 97 S 12 19 29.69 1005 4 6 0.02 0.51
10:53 am 10:53 Cloudy with Light Rain 52 11.1 51 10.6 97 97 S 9 15 29.68 1005 3 5 0.03 0.76
11:53 am 11:53 Cloudy with Light Rain 54 12.2 53 11.7 97 97 SSE 9 15 29.63 1003 6 10 0.08 2.03
12:53 pm 12:53 Cloudy 56 13.3 54 12.2 93 93 S 9 15 29.59 1002 10 16 0.00 0.00
1:43 pm 13:43 Cloudy with Rain 56 13.3 55 12.8 97 97 S 10 17 29.59 1002 2 3 0.04 1.02
1:53 pm 13:53 Cloudy with Light Rain 56 13.3 55 12.8 97 97 SSW 8 13 29.59 1002 2 3 0.06 1.52
2:02 pm 14:02 Cloudy with Light Rain 56 13.3 55 12.8 97 97 SW 8 13 29.60 1002 3 5 0.01 0.25
2:11 pm 14:11 Cloudy with Rain 56 13.3 55 12.8 97 97 WSW 7 11 29.59 1002 2 3 0.03 0.76
2:28 pm 14:28 Cloudy with Light Rain 56 13.3 56 13.3 100 100 WSW 7 11 29.60 1002 2 3 0.05 1.27
2:41 pm 14:41 Cloudy with Light Rain 56 13.3 55 12.8 97 97 WNW 16 26 29.61 1003 3 5 0.06 1.52
2:44 pm 14:44 Cloudy with Light Rain 55 12.8 54 12.2 96 96 W 16 26 29.61 1003 3 4 0.06 1.52
2:47 pm 14:47 Cloudy with Light Rain 55 13 54 12 94 94 W 15 24 29.61 1003 2 3 0.07 1.78
2:49 pm 14:49 Cloudy with Light Rain 54 12 54 12 100 100 WNW 13 20 29.61 1003 2 2 0.07 1.78
2:53 pm 14:53 Cloudy with Light Rain 54 12.2 54 12.2 100 100 W 12 19 29.61 1003 1 2 0.07 1.78
3:14 pm 15:14 Cloudy with Light Rain 53 11.7 53 11.7 100 100 W 12 19 29.62 1003 3 5 0.05 1.27
3:29 pm 15:29 Cloudy with Light Rain 54 12.2 53 11.7 97 97 W 10 17 29.62 1003 3 4 0.08 2.03
3:36 pm 15:36 Cloudy with Light Rain 53 11.7 52 11.1 96 96 WNW 9 15 29.62 1003 5 8 0.09 2.29
3:53 pm 15:53 Cloudy with Rain 53 11.7 51 10.6 93 93 Calm 29.61 1003 5 8 0.10 2.54
4:53 pm 16:53 Cloudy with Light Rain 53 11.7 51 10.6 93 93 SW 5 7 29.60 1003 10 16 0.07 1.78
5:53 pm 17:53 Cloudy 54 12.2 51 10.6 90 90 SW 3 6 29.63 1003 10 16 0.00 0.00
6:53 pm 18:53 Mostly Cloudy 56 13.3 50 10 81 81 VRB 5 7 29.65 1004 10 16 0.00 0.00
7:53 pm 19:53 Mostly Cloudy 54 12.2 48 8.9 80 80 VRB 3 6 29.67 1005 10 16 0.00 0.00
8:00 pm 20:00 Mostly Sunny 53 11.7 47 8.3 80 80 Calm 29.68 1005 10 16 0.00 0.00
8:53 pm 20:53 Mostly Cloudy 53 11.7 45 7.2 74 74 Calm 29.70 1006 10 16 0.00 0.00
9:53 pm 21:53 Clear 47 8.3 46 7.8 97 97 Calm 29.72 1007 10 16 0.00 0.00
10:53 pm 22:53 Clear 47 8.3 46 7.8 97 97 Calm 29.74 1007 10 16 0.00 0.00
11:23 pm 23:23 Clear with Mist and Fog 44 6.7 44 6.7 100 100 Calm 29.75 1008 2 3 0.00 0.00
11:43 pm 23:43 Clear with Fog 45 7.2 45 7.2 100 100 Calm 29.75 1008 0 0 0.00 0.00
11:53 pm 23:53 Clear with Fog 44 6.7 44 6.7 100 100 Calm 29.74 1007 0 0 0.00 0.00

Powered by AerisWeather